星链-31682 (STARLINK-31682 )

导读

STARLINK-31682是美国SpaceX星链星座中的卫星,于2024年4月7日发射升空。星链计划旨在构建全球卫星互联网,为全球提供高速低延迟网络服务,该卫星入轨后承担地面通信覆盖任务,进一步扩充星链星座规模,增强了星座服务能力与覆盖稳定性,服务全球用户的互联网接入需求。

基本信息
目录编号:
59440
目录名称:
STARLINK-31682
国际标识:
2024-065V
轨道中心:
EARTH
卫星名称:
星链-31682
卫星全名:
星链-31682 (STARLINK-31682 )
卫星状态:
已陨落 最后检测时间 2024-10-11
发射日期:
2024-04-07 UTC
国别 :
美国 (US)
星等 :
--
该卫星已列入 空间交会检测服务 Space Conjunction Data Service (SCDS) ,当前飞行风险评估等级: 无高风险
轨道信息
数据来源 国际轨道数据
星历时间: 2024-10-10T19:35:19+0800
轨道信息已过期702天
半长轴: 6595.799km
偏心率: 0.0011131
轨道倾角: 53.139°
近地点辐角 268.944°
升交点赤经 118.559°
平近点角 197.317°
近地点: 210.322km
远地点: 225.006km
周期: 88.851分钟
每日圈数: 16.206965
详细信息
固有亮度:
5
最大亮度:
1.5
卫星平台:
Starlink v2.0 mini
覆盖范围:
全球
运营商:
太空探索技术公司
运营商所在国:
美国
制造商(研发单位):
太空探索技术公司
制造商所在国:
美国
使用方式:
暂无
卫星简介
星链(Starlink)计划是由太空探索技术公司(SpaceX)提出的一个巨型低轨卫星互联网星座项目,计划在2019年至2024年间在太空搭建由约1.2万颗卫星组成的“星链”网络,其中1584颗将部署在地球上空550千米处的近地轨道,并从2020年开始工作。该卫星仍在工作。
与全量物体交会距离演化趋势
与全量物体交会风险概率演化趋势